Year,Month,Day,Hour,Minute,Value (Times are PST for temperature in C)
2007,08,14,00,00,12.40
2007,08,14,00,01,12.30
2007,08,14,00,02,12.30
2007,08,14,00,03,12.30
2007,08,14,00,04,12.30
2007,08,14,00,05,12.30
2007,08,14,00,06,12.30
2007,08,14,00,07,12.30
2007,08,14,00,08,12.30
2007,08,14,00,09,12.30
2007,08,14,00,10,12.30
2007,08,14,00,11,12.30
2007,08,14,00,12,12.30
2007,08,14,00,13,12.30
2007,08,14,00,14,12.30
2007,08,14,00,15,12.30
2007,08,14,00,16,12.30
2007,08,14,00,17,12.30
2007,08,14,00,18,12.20
2007,08,14,00,19,12.20
2007,08,14,00,20,12.20
2007,08,14,00,21,12.20
2007,08,14,00,22,12.20
2007,08,14,00,23,12.10
2007,08,14,00,24,12.10
2007,08,14,00,25,12.10
2007,08,14,00,26,12.10
2007,08,14,00,27,12.10
2007,08,14,00,28,12.10
2007,08,14,00,29,12.00
2007,08,14,00,30,12.00
2007,08,14,00,31,12.00
2007,08,14,00,32,12.00
2007,08,14,00,33,12.00
2007,08,14,00,34,11.90
2007,08,14,00,35,11.90
2007,08,14,00,36,11.90
2007,08,14,00,37,11.90
2007,08,14,00,38,11.80
2007,08,14,00,39,11.80
2007,08,14,00,40,11.80
2007,08,14,00,41,11.80
2007,08,14,00,42,11.80
2007,08,14,00,43,11.80
2007,08,14,00,44,11.80
2007,08,14,00,45,11.80
2007,08,14,00,46,11.80
2007,08,14,00,47,11.80
2007,08,14,00,48,11.80
2007,08,14,00,49,11.80
2007,08,14,00,50,11.80
2007,08,14,00,51,11.80
2007,08,14,00,52,11.70
2007,08,14,00,53,11.70
2007,08,14,00,54,11.70
2007,08,14,00,55,11.80
2007,08,14,00,56,11.80
2007,08,14,00,57,11.80
2007,08,14,00,58,11.80
2007,08,14,00,59,11.80
2007,08,14,01,00,11.90
2007,08,14,01,01,11.90
2007,08,14,01,02,11.90
2007,08,14,01,03,12.00
2007,08,14,01,04,12.00
2007,08,14,01,05,12.00
2007,08,14,01,06,11.90
2007,08,14,01,07,11.90
2007,08,14,01,08,11.90
2007,08,14,01,09,11.90
2007,08,14,01,10,12.00
2007,08,14,01,11,12.10
2007,08,14,01,12,12.10
2007,08,14,01,13,12.20
2007,08,14,01,14,12.30
2007,08,14,01,15,12.40
2007,08,14,01,16,12.40
2007,08,14,01,17,12.40
2007,08,14,01,18,12.40
2007,08,14,01,19,12.30
2007,08,14,01,20,12.30
2007,08,14,01,21,12.30
2007,08,14,01,22,12.30
2007,08,14,01,23,12.30
2007,08,14,01,24,12.30
2007,08,14,01,25,12.30
2007,08,14,01,26,12.30
2007,08,14,01,27,12.30
2007,08,14,01,28,12.20
2007,08,14,01,29,12.20
2007,08,14,01,30,12.20
2007,08,14,01,31,12.20
2007,08,14,01,32,12.20
2007,08,14,01,33,12.20
2007,08,14,01,34,12.10
2007,08,14,01,35,12.10
2007,08,14,01,36,12.10
2007,08,14,01,37,12.10
2007,08,14,01,38,12.10
2007,08,14,01,39,12.10
2007,08,14,01,40,12.10
2007,08,14,01,41,12.00
2007,08,14,01,42,12.00
2007,08,14,01,43,12.00
2007,08,14,01,44,12.00
2007,08,14,01,45,12.00
2007,08,14,01,46,12.00
2007,08,14,01,47,11.90
2007,08,14,01,48,11.90
2007,08,14,01,49,11.90
2007,08,14,01,50,11.90
2007,08,14,01,51,11.90
2007,08,14,01,52,11.90
2007,08,14,01,53,11.90
2007,08,14,01,54,11.90
2007,08,14,01,55,11.90
2007,08,14,01,56,11.90
2007,08,14,01,57,11.80
2007,08,14,01,58,11.80
2007,08,14,01,59,11.80
2007,08,14,02,00,11.80
2007,08,14,02,01,11.80
2007,08,14,02,02,11.80
2007,08,14,02,03,11.80
2007,08,14,02,04,11.80
2007,08,14,02,05,11.80
2007,08,14,02,06,11.80
2007,08,14,02,07,11.80
2007,08,14,02,08,11.80
2007,08,14,02,09,11.80
2007,08,14,02,10,11.80
2007,08,14,02,11,11.80
2007,08,14,02,12,11.80
2007,08,14,02,13,11.80
2007,08,14,02,14,11.80
2007,08,14,02,15,11.80
2007,08,14,02,16,11.80
2007,08,14,02,17,11.80
2007,08,14,02,18,11.80
2007,08,14,02,19,11.90
2007,08,14,02,20,11.90
2007,08,14,02,21,11.90
2007,08,14,02,22,12.00
2007,08,14,02,23,12.00
2007,08,14,02,24,12.00
2007,08,14,02,25,12.00
2007,08,14,02,26,12.00
2007,08,14,02,27,12.00
2007,08,14,02,28,12.00
2007,08,14,02,29,12.00
2007,08,14,02,30,12.00
2007,08,14,02,31,11.90
2007,08,14,02,32,11.90
2007,08,14,02,33,11.90
2007,08,14,02,34,12.00
2007,08,14,02,35,12.00
2007,08,14,02,36,12.00
2007,08,14,02,37,12.00
2007,08,14,02,38,12.00
2007,08,14,02,39,12.00
2007,08,14,02,40,12.00
2007,08,14,02,41,11.90
2007,08,14,02,42,11.90
2007,08,14,02,43,11.90
2007,08,14,02,44,11.90
2007,08,14,02,45,11.90
2007,08,14,02,46,11.90
2007,08,14,02,47,11.90
2007,08,14,02,48,11.80
2007,08,14,02,49,11.80
2007,08,14,02,50,11.80
2007,08,14,02,51,11.80
2007,08,14,02,52,11.80
2007,08,14,02,53,11.80
2007,08,14,02,54,11.80
2007,08,14,02,55,11.80
2007,08,14,02,56,11.80
2007,08,14,02,57,11.80
2007,08,14,02,58,11.80
2007,08,14,02,59,11.80
2007,08,14,03,00,11.80
2007,08,14,03,01,11.80
2007,08,14,03,02,11.90
2007,08,14,03,03,11.90
2007,08,14,03,04,12.00
2007,08,14,03,05,12.00
2007,08,14,03,06,12.00
2007,08,14,03,07,12.00
2007,08,14,03,08,12.00
2007,08,14,03,09,12.00
2007,08,14,03,10,12.00
2007,08,14,03,11,12.00
2007,08,14,03,12,12.00
2007,08,14,03,13,12.00
2007,08,14,03,14,12.00
2007,08,14,03,15,11.90
2007,08,14,03,16,12.00
2007,08,14,03,17,12.00
2007,08,14,03,18,12.00
2007,08,14,03,19,12.00
2007,08,14,03,20,12.00
2007,08,14,03,21,12.00
2007,08,14,03,22,12.00
2007,08,14,03,23,12.00
2007,08,14,03,24,12.00
2007,08,14,03,25,12.00
2007,08,14,03,26,11.90
2007,08,14,03,27,11.90
2007,08,14,03,28,11.90
2007,08,14,03,29,11.90
2007,08,14,03,30,11.90
2007,08,14,03,31,11.90
2007,08,14,03,32,11.90
2007,08,14,03,33,11.80
2007,08,14,03,34,11.80
2007,08,14,03,35,11.80
2007,08,14,03,36,11.80
2007,08,14,03,37,11.80
2007,08,14,03,38,11.80
2007,08,14,03,39,11.80
2007,08,14,03,40,11.80
2007,08,14,03,41,11.80
2007,08,14,03,42,11.80
2007,08,14,03,43,11.80
2007,08,14,03,44,11.80
2007,08,14,03,45,11.80
2007,08,14,03,46,11.80
2007,08,14,03,47,11.80
2007,08,14,03,48,11.80
2007,08,14,03,49,11.80
2007,08,14,03,50,11.80
2007,08,14,03,51,11.80
2007,08,14,03,52,11.80
2007,08,14,03,53,11.80
2007,08,14,03,54,11.80
2007,08,14,03,55,11.80
2007,08,14,03,56,11.80
2007,08,14,03,57,11.80
2007,08,14,03,58,11.80
2007,08,14,03,59,11.80
2007,08,14,04,00,11.80
2007,08,14,04,01,11.80
2007,08,14,04,02,11.80
2007,08,14,04,03,11.80
2007,08,14,04,04,11.80
2007,08,14,04,05,11.80
2007,08,14,04,06,11.80
2007,08,14,04,07,11.80
2007,08,14,04,08,11.80
2007,08,14,04,09,11.80
2007,08,14,04,10,11.80
2007,08,14,04,11,11.80
2007,08,14,04,12,11.80
2007,08,14,04,13,11.80
2007,08,14,04,14,11.80
2007,08,14,04,15,11.80
2007,08,14,04,16,11.70
2007,08,14,04,17,11.70
2007,08,14,04,18,11.70
2007,08,14,04,19,11.70
2007,08,14,04,20,11.70
2007,08,14,04,21,11.70
2007,08,14,04,22,11.70
2007,08,14,04,23,11.70
2007,08,14,04,24,11.70
2007,08,14,04,25,11.60
2007,08,14,04,26,11.60
2007,08,14,04,27,11.60
2007,08,14,04,28,11.60
2007,08,14,04,29,11.60
2007,08,14,04,30,11.60
2007,08,14,04,31,11.60
2007,08,14,04,32,11.60
2007,08,14,04,33,11.70
2007,08,14,04,34,11.70
2007,08,14,04,35,11.70
2007,08,14,04,36,11.70
2007,08,14,04,37,11.70
2007,08,14,04,38,11.70
2007,08,14,04,39,11.80
2007,08,14,04,40,11.80
2007,08,14,04,41,11.80
2007,08,14,04,42,11.80
2007,08,14,04,43,11.80
2007,08,14,04,44,11.80
2007,08,14,04,45,11.80
2007,08,14,04,46,11.80
2007,08,14,04,47,11.80
2007,08,14,04,48,11.80
2007,08,14,04,49,11.80
2007,08,14,04,50,11.80
2007,08,14,04,51,11.80
2007,08,14,04,52,11.80
2007,08,14,04,53,11.80
2007,08,14,04,54,11.80
2007,08,14,04,55,11.80
2007,08,14,04,56,11.80
2007,08,14,04,57,11.80
2007,08,14,04,58,11.80
2007,08,14,04,59,11.80
2007,08,14,05,00,11.80
2007,08,14,05,01,11.80
2007,08,14,05,02,11.80
2007,08,14,05,03,11.80
2007,08,14,05,04,11.80
2007,08,14,05,05,11.80
2007,08,14,05,06,11.80
2007,08,14,05,07,11.80
2007,08,14,05,08,11.80
2007,08,14,05,09,11.80
2007,08,14,05,10,11.80
2007,08,14,05,11,11.80
2007,08,14,05,12,11.80
2007,08,14,05,13,11.80
2007,08,14,05,14,11.80
2007,08,14,05,15,11.80
2007,08,14,05,16,11.80
2007,08,14,05,17,11.80
2007,08,14,05,18,11.80
2007,08,14,05,19,11.80
2007,08,14,05,20,11.70
2007,08,14,05,21,11.70
2007,08,14,05,22,11.70
2007,08,14,05,23,11.70
2007,08,14,05,24,11.70
2007,08,14,05,25,11.70
2007,08,14,05,26,11.80
2007,08,14,05,27,11.80
2007,08,14,05,28,11.80
2007,08,14,05,29,11.80
2007,08,14,05,30,11.80
2007,08,14,05,31,11.80
2007,08,14,05,32,11.80
2007,08,14,05,33,11.80
2007,08,14,05,34,11.70
2007,08,14,05,35,11.70
2007,08,14,05,36,11.60
2007,08,14,05,37,11.60
2007,08,14,05,38,11.60
2007,08,14,05,39,11.60
2007,08,14,05,40,11.60
2007,08,14,05,41,11.60
2007,08,14,05,42,11.60
2007,08,14,05,43,11.60
2007,08,14,05,44,11.60
2007,08,14,05,45,11.60
2007,08,14,05,46,11.60
2007,08,14,05,47,11.60
2007,08,14,05,48,11.60
2007,08,14,05,49,11.60
2007,08,14,05,50,11.60
2007,08,14,05,51,11.60
2007,08,14,05,52,11.60
2007,08,14,05,53,11.60
2007,08,14,05,54,11.60
2007,08,14,05,55,11.60
2007,08,14,05,56,11.60
2007,08,14,05,57,11.50
2007,08,14,05,58,11.40
2007,08,14,05,59,11.40
2007,08,14,06,00,11.40
2007,08,14,06,01,11.40
2007,08,14,06,02,11.40
2007,08,14,06,03,11.40
2007,08,14,06,04,11.40
2007,08,14,06,05,11.40
2007,08,14,06,06,11.40
2007,08,14,06,07,11.40
2007,08,14,06,08,11.40
2007,08,14,06,09,11.40
2007,08,14,06,10,11.40
2007,08,14,06,11,11.40
2007,08,14,06,12,11.40
2007,08,14,06,13,11.40
2007,08,14,06,14,11.40
2007,08,14,06,15,11.40
2007,08,14,06,16,11.40
2007,08,14,06,17,11.40
2007,08,14,06,18,11.40
2007,08,14,06,19,11.40
2007,08,14,06,20,11.40
2007,08,14,06,21,11.40
2007,08,14,06,22,11.40
2007,08,14,06,23,11.40
2007,08,14,06,24,11.40
2007,08,14,06,25,11.40
2007,08,14,06,26,11.40
2007,08,14,06,27,11.40
2007,08,14,06,28,11.40
2007,08,14,06,29,11.40
2007,08,14,06,30,11.40
2007,08,14,06,31,11.40
2007,08,14,06,32,11.40
2007,08,14,06,33,11.40
2007,08,14,06,34,11.40
2007,08,14,06,35,11.40
2007,08,14,06,36,11.40
2007,08,14,06,37,11.40
2007,08,14,06,38,11.40
2007,08,14,06,39,11.40
2007,08,14,06,40,11.40
2007,08,14,06,41,11.40
2007,08,14,06,42,11.40
2007,08,14,06,43,11.40
2007,08,14,06,44,11.40
2007,08,14,06,45,11.40
2007,08,14,06,46,11.40
2007,08,14,06,47,11.60
2007,08,14,06,48,11.60
2007,08,14,06,49,11.60
2007,08,14,06,50,11.60
2007,08,14,06,51,11.60
2007,08,14,06,52,11.70
2007,08,14,06,53,11.70
2007,08,14,06,54,11.80
2007,08,14,06,55,11.80
2007,08,14,06,56,11.80
2007,08,14,06,57,11.80
2007,08,14,06,58,11.80
2007,08,14,06,59,11.90
2007,08,14,07,00,11.90
2007,08,14,07,01,12.00
2007,08,14,07,02,12.00
2007,08,14,07,03,12.10
2007,08,14,07,04,12.10
2007,08,14,07,05,12.20
2007,08,14,07,06,12.30
2007,08,14,07,07,12.30
2007,08,14,07,08,12.40
2007,08,14,07,09,12.40
2007,08,14,07,10,12.60
2007,08,14,07,11,12.60
2007,08,14,07,12,12.70
2007,08,14,07,13,12.80
2007,08,14,07,14,12.90
2007,08,14,07,15,13.00
2007,08,14,07,16,13.00
2007,08,14,07,17,13.10
2007,08,14,07,18,13.10
2007,08,14,07,19,13.30
2007,08,14,07,20,13.30
2007,08,14,07,21,13.40
2007,08,14,07,22,13.50
2007,08,14,07,23,13.50
2007,08,14,07,24,13.60
2007,08,14,07,25,13.60
2007,08,14,07,26,13.60
2007,08,14,07,27,13.70
2007,08,14,07,28,13.70
2007,08,14,07,29,13.70
2007,08,14,07,30,13.80
2007,08,14,07,31,13.80
2007,08,14,07,32,13.80
2007,08,14,07,33,13.80
2007,08,14,07,34,13.80
2007,08,14,07,35,13.80
2007,08,14,07,36,13.80
2007,08,14,07,37,13.80
2007,08,14,07,38,13.80
2007,08,14,07,39,13.80
2007,08,14,07,40,13.80
2007,08,14,07,41,13.80
2007,08,14,07,42,13.80
2007,08,14,07,43,13.80
2007,08,14,07,44,13.80
2007,08,14,07,45,13.80
2007,08,14,07,46,13.80
2007,08,14,07,47,13.80
2007,08,14,07,48,13.80
2007,08,14,07,49,13.90
2007,08,14,07,50,13.90
2007,08,14,07,51,13.90
2007,08,14,07,52,13.90
2007,08,14,07,53,13.90
2007,08,14,07,54,13.90
2007,08,14,07,55,13.90
2007,08,14,07,56,13.90
2007,08,14,07,57,13.90
2007,08,14,07,58,13.90
2007,08,14,07,59,13.80
2007,08,14,08,00,13.70
2007,08,14,08,01,13.70
2007,08,14,08,02,13.60
2007,08,14,08,03,13.60
2007,08,14,08,04,13.60
2007,08,14,08,05,13.60
2007,08,14,08,06,13.60
2007,08,14,08,07,13.50
2007,08,14,08,08,13.50
2007,08,14,08,09,13.50
2007,08,14,08,10,13.50
2007,08,14,08,11,13.50
2007,08,14,08,12,13.60
2007,08,14,08,13,13.60
2007,08,14,08,14,13.70
2007,08,14,08,15,13.70
2007,08,14,08,16,13.70
2007,08,14,08,17,13.70
2007,08,14,08,18,13.70
2007,08,14,08,19,13.70
2007,08,14,08,20,13.70
2007,08,14,08,21,13.70
2007,08,14,08,22,13.70
2007,08,14,08,23,13.70
2007,08,14,08,24,13.80
2007,08,14,08,25,13.80
2007,08,14,08,26,13.90
2007,08,14,08,27,13.90
2007,08,14,08,28,14.00
2007,08,14,08,29,14.00
2007,08,14,08,30,14.10
2007,08,14,08,31,14.10
2007,08,14,08,32,14.20
2007,08,14,08,33,14.20
2007,08,14,08,34,14.20
2007,08,14,08,35,14.20
2007,08,14,08,36,14.20
2007,08,14,08,37,14.20
2007,08,14,08,38,14.20
2007,08,14,08,39,14.30
2007,08,14,08,40,14.30
2007,08,14,08,41,14.30
2007,08,14,08,42,14.30
2007,08,14,08,43,14.40
2007,08,14,08,44,14.40
2007,08,14,08,45,14.40
2007,08,14,08,46,14.40
2007,08,14,08,47,14.40
2007,08,14,08,48,14.30
2007,08,14,08,49,14.30
2007,08,14,08,50,14.30
2007,08,14,08,51,14.30
2007,08,14,08,52,14.40
2007,08,14,08,53,14.40
2007,08,14,08,54,14.50
2007,08,14,08,55,14.50
2007,08,14,08,56,14.60
2007,08,14,08,57,14.60
2007,08,14,08,58,14.60
2007,08,14,08,59,14.60
2007,08,14,09,00,14.60
2007,08,14,09,01,14.70
2007,08,14,09,02,14.70
2007,08,14,09,03,14.80
2007,08,14,09,04,14.80
2007,08,14,09,05,14.80
2007,08,14,09,06,14.80
2007,08,14,09,07,14.80
2007,08,14,09,08,14.80
2007,08,14,09,09,14.80
2007,08,14,09,10,14.80
2007,08,14,09,11,14.80
2007,08,14,09,12,14.80
2007,08,14,09,13,14.80
2007,08,14,09,14,14.80
2007,08,14,09,15,14.90
2007,08,14,09,16,14.90
2007,08,14,09,17,14.90
2007,08,14,09,18,15.00
2007,08,14,09,19,14.90
2007,08,14,09,20,14.90
2007,08,14,09,21,14.90
2007,08,14,09,22,14.90
2007,08,14,09,23,14.80
2007,08,14,09,24,14.80
2007,08,14,09,25,14.80
2007,08,14,09,26,14.80
2007,08,14,09,27,14.80
2007,08,14,09,28,14.90
2007,08,14,09,29,14.90
2007,08,14,09,30,14.90
2007,08,14,09,31,14.90
2007,08,14,09,32,14.90
2007,08,14,09,33,15.00
2007,08,14,09,34,15.00
2007,08,14,09,35,15.00
2007,08,14,09,36,15.00
2007,08,14,09,37,15.00
2007,08,14,09,38,15.00
2007,08,14,09,39,15.10
2007,08,14,09,40,15.10
2007,08,14,09,41,15.10
2007,08,14,09,42,15.00
2007,08,14,09,43,14.90
2007,08,14,09,44,14.80
2007,08,14,09,45,14.70
2007,08,14,09,46,14.60
2007,08,14,09,47,14.60
2007,08,14,09,48,14.60
2007,08,14,09,49,14.60
2007,08,14,09,50,14.60
2007,08,14,09,51,14.60
2007,08,14,09,52,14.70
2007,08,14,09,53,14.70
2007,08,14,09,54,14.70
2007,08,14,09,55,14.70
2007,08,14,09,56,14.90
2007,08,14,09,57,14.90
2007,08,14,09,58,14.90
2007,08,14,09,59,15.00
2007,08,14,10,00,15.00
2007,08,14,10,01,15.00
2007,08,14,10,02,15.00
2007,08,14,10,03,15.10
2007,08,14,10,04,15.10
2007,08,14,10,05,15.10
2007,08,14,10,06,15.10
2007,08,14,10,07,15.00
2007,08,14,10,08,15.00
2007,08,14,10,09,15.00
2007,08,14,10,10,15.00
2007,08,14,10,11,15.00
2007,08,14,10,12,15.00
2007,08,14,10,13,15.00
2007,08,14,10,14,15.00
2007,08,14,10,15,15.10
2007,08,14,10,16,15.10
2007,08,14,10,17,15.20
2007,08,14,10,18,15.30
2007,08,14,10,19,15.30
2007,08,14,10,20,15.30
2007,08,14,10,21,15.30
2007,08,14,10,22,15.30
2007,08,14,10,23,15.40
2007,08,14,10,24,15.40
2007,08,14,10,25,15.40
2007,08,14,10,26,15.50
2007,08,14,10,27,15.60
2007,08,14,10,28,15.60
2007,08,14,10,29,15.60
2007,08,14,10,30,15.60
2007,08,14,10,31,15.60
2007,08,14,10,32,15.60
2007,08,14,10,33,15.70
2007,08,14,10,34,15.70
2007,08,14,10,35,15.80
2007,08,14,10,36,15.80
2007,08,14,10,37,15.80
2007,08,14,10,38,15.70
2007,08,14,10,39,15.70
2007,08,14,10,40,15.70
2007,08,14,10,41,15.50
2007,08,14,10,42,15.40
2007,08,14,10,43,15.30
2007,08,14,10,44,15.20
2007,08,14,10,45,15.00
2007,08,14,10,46,14.80
2007,08,14,10,47,14.80
2007,08,14,10,48,14.80
2007,08,14,10,49,14.70
2007,08,14,10,50,14.60
2007,08,14,10,51,14.60
2007,08,14,10,52,14.50
2007,08,14,10,53,14.50
2007,08,14,10,54,14.50
2007,08,14,10,55,14.50
2007,08,14,10,56,14.50
2007,08,14,10,57,14.50
2007,08,14,10,58,14.50
2007,08,14,10,59,14.60
2007,08,14,11,00,14.60
2007,08,14,11,01,14.50
2007,08,14,11,02,14.60
2007,08,14,11,03,14.70
2007,08,14,11,04,14.70
2007,08,14,11,05,14.80
2007,08,14,11,06,14.80
2007,08,14,11,07,14.80
2007,08,14,11,08,14.80
2007,08,14,11,09,14.80
2007,08,14,11,10,14.80
2007,08,14,11,11,14.80
2007,08,14,11,12,14.80
2007,08,14,11,13,14.80
2007,08,14,11,14,14.80
2007,08,14,11,15,14.70
2007,08,14,11,16,14.70
2007,08,14,11,17,14.70
2007,08,14,11,18,14.60
2007,08,14,11,19,14.70
2007,08,14,11,20,14.70
2007,08,14,11,21,14.70
2007,08,14,11,22,14.70
2007,08,14,11,23,14.70
2007,08,14,11,24,14.70
2007,08,14,11,25,14.70
2007,08,14,11,26,14.80
2007,08,14,11,27,14.80
2007,08,14,11,28,14.80
2007,08,14,11,29,14.90
2007,08,14,11,30,15.00
2007,08,14,11,31,15.20
2007,08,14,11,32,15.20
2007,08,14,11,33,15.30
2007,08,14,11,34,15.20
2007,08,14,11,35,15.20
2007,08,14,11,36,15.20
2007,08,14,11,37,15.30
2007,08,14,11,38,15.30
2007,08,14,11,39,15.30
2007,08,14,11,40,15.20
2007,08,14,11,41,15.30
2007,08,14,11,42,15.30
2007,08,14,11,43,15.30
2007,08,14,11,44,15.50
2007,08,14,11,45,15.50
2007,08,14,11,46,15.70
2007,08,14,11,47,15.80
2007,08,14,11,48,15.80
2007,08,14,11,49,15.90
2007,08,14,11,50,15.90
2007,08,14,11,51,16.00
2007,08,14,11,52,16.10
2007,08,14,11,53,16.10
2007,08,14,11,54,16.10
2007,08,14,11,55,15.90
2007,08,14,11,56,15.60
2007,08,14,11,57,15.50
2007,08,14,11,58,15.50
2007,08,14,11,59,15.50
2007,08,14,12,00,15.40
2007,08,14,12,01,15.30
2007,08,14,12,02,15.20
2007,08,14,12,03,15.20
2007,08,14,12,04,15.30
2007,08,14,12,05,15.30
2007,08,14,12,06,15.40
2007,08,14,12,07,15.50
2007,08,14,12,08,15.60
2007,08,14,12,09,15.60
2007,08,14,12,10,15.70
2007,08,14,12,11,15.80
2007,08,14,12,12,15.90
2007,08,14,12,13,16.10
2007,08,14,12,14,16.10
2007,08,14,12,15,16.10
2007,08,14,12,16,16.20
2007,08,14,12,17,16.30
2007,08,14,12,18,16.40
2007,08,14,12,19,16.70
2007,08,14,12,20,16.80
2007,08,14,12,21,16.80
2007,08,14,12,22,16.70
2007,08,14,12,23,16.70
2007,08,14,12,24,16.80
2007,08,14,12,25,17.00
2007,08,14,12,26,17.10
2007,08,14,12,27,17.40
2007,08,14,12,28,17.60
2007,08,14,12,29,17.90
2007,08,14,12,30,18.20
2007,08,14,12,31,18.20
2007,08,14,12,32,18.20
2007,08,14,12,33,18.00
2007,08,14,12,34,17.90
2007,08,14,12,35,17.90
2007,08,14,12,36,17.90
2007,08,14,12,37,17.90
2007,08,14,12,38,18.30
2007,08,14,12,39,18.50
2007,08,14,12,40,18.80
2007,08,14,12,41,19.20
2007,08,14,12,42,19.60
2007,08,14,12,43,20.10
2007,08,14,12,44,20.40
2007,08,14,12,45,20.80
2007,08,14,12,46,21.20
2007,08,14,12,47,21.40
2007,08,14,12,48,21.60
2007,08,14,12,49,21.80
2007,08,14,12,50,22.00
2007,08,14,12,51,22.30
2007,08,14,12,52,22.50
2007,08,14,12,53,22.50
2007,08,14,12,54,22.70
2007,08,14,12,55,23.00
2007,08,14,12,56,23.10
2007,08,14,12,57,23.10
2007,08,14,12,58,23.10
2007,08,14,12,59,23.20
2007,08,14,13,00,23.20
2007,08,14,13,01,23.30
2007,08,14,13,02,23.30
2007,08,14,13,03,23.30
2007,08,14,13,04,23.20
2007,08,14,13,05,23.20
2007,08,14,13,06,23.30
2007,08,14,13,07,23.40
2007,08,14,13,08,23.50
2007,08,14,13,09,23.60
2007,08,14,13,10,23.60
2007,08,14,13,11,23.70
2007,08,14,13,12,23.70
2007,08,14,13,13,23.70
2007,08,14,13,14,23.60
2007,08,14,13,15,23.60
2007,08,14,13,16,23.60
2007,08,14,13,17,23.60
2007,08,14,13,18,23.70
2007,08,14,13,19,23.70
2007,08,14,13,20,23.70
2007,08,14,13,21,23.70
2007,08,14,13,22,23.80
2007,08,14,13,23,23.90
2007,08,14,13,24,23.90
2007,08,14,13,25,23.90
2007,08,14,13,26,23.70
2007,08,14,13,27,23.50
2007,08,14,13,28,23.40
2007,08,14,13,29,23.30
2007,08,14,13,30,23.30
2007,08,14,13,31,23.30
2007,08,14,13,32,23.30
2007,08,14,13,33,23.30
2007,08,14,13,34,23.30
2007,08,14,13,35,23.40
2007,08,14,13,36,23.40
2007,08,14,13,37,23.40
2007,08,14,13,38,23.40
2007,08,14,13,39,23.60
2007,08,14,13,40,23.60
2007,08,14,13,41,23.60
2007,08,14,13,42,23.40
2007,08,14,13,43,23.40
2007,08,14,13,44,23.40
2007,08,14,13,45,23.30
2007,08,14,13,46,23.40
2007,08,14,13,47,23.40
2007,08,14,13,48,23.50
2007,08,14,13,49,23.60
2007,08,14,13,50,23.80
2007,08,14,13,51,24.00
2007,08,14,13,52,24.10
2007,08,14,13,53,24.10
2007,08,14,13,54,24.20
2007,08,14,13,55,24.20
2007,08,14,13,56,24.10
2007,08,14,13,57,24.00
2007,08,14,13,58,23.90
2007,08,14,13,59,23.90
2007,08,14,14,00,23.80
2007,08,14,14,01,23.70
2007,08,14,14,02,23.70
2007,08,14,14,03,23.70
2007,08,14,14,04,23.70
2007,08,14,14,05,23.70
2007,08,14,14,06,23.70
2007,08,14,14,07,23.70
2007,08,14,14,08,23.70
2007,08,14,14,09,23.70
2007,08,14,14,10,23.70
2007,08,14,14,11,23.70
2007,08,14,14,12,23.70
2007,08,14,14,13,23.70
2007,08,14,14,14,23.70
2007,08,14,14,15,23.70
2007,08,14,14,16,23.70
2007,08,14,14,17,23.70
2007,08,14,14,18,23.80
2007,08,14,14,19,23.80
2007,08,14,14,20,23.80
2007,08,14,14,21,23.90
2007,08,14,14,22,23.90
2007,08,14,14,23,24.00
2007,08,14,14,24,24.10
2007,08,14,14,25,24.20
2007,08,14,14,26,24.40
2007,08,14,14,27,24.40
2007,08,14,14,28,24.60
2007,08,14,14,29,24.70
2007,08,14,14,30,24.80
2007,08,14,14,31,24.80
2007,08,14,14,32,24.80
2007,08,14,14,33,24.80
2007,08,14,14,34,24.60
2007,08,14,14,35,23.60
2007,08,14,14,36,22.40
2007,08,14,14,37,21.60
2007,08,14,14,38,21.10
2007,08,14,14,39,20.80
2007,08,14,14,40,20.40
2007,08,14,14,41,20.20
2007,08,14,14,42,20.20
2007,08,14,14,43,20.20
2007,08,14,14,44,20.20
2007,08,14,14,45,20.20
2007,08,14,14,46,20.20
2007,08,14,14,47,20.20
2007,08,14,14,48,20.20
2007,08,14,14,49,20.20
2007,08,14,14,50,20.20
2007,08,14,14,51,20.20
2007,08,14,14,52,20.50
2007,08,14,14,53,20.80
2007,08,14,14,54,21.30
2007,08,14,14,55,21.80
2007,08,14,14,56,22.10
2007,08,14,14,57,22.30
2007,08,14,14,58,22.80
2007,08,14,14,59,22.90
2007,08,14,15,00,23.20
2007,08,14,15,01,23.70
2007,08,14,15,02,24.00
2007,08,14,15,03,24.10
2007,08,14,15,04,24.30
2007,08,14,15,05,24.50
2007,08,14,15,06,24.50
2007,08,14,15,07,24.60
2007,08,14,15,08,24.70
2007,08,14,15,09,24.70
2007,08,14,15,10,24.70
2007,08,14,15,11,24.40
2007,08,14,15,12,23.90
2007,08,14,15,13,23.10
2007,08,14,15,14,22.90
2007,08,14,15,15,22.00
2007,08,14,15,16,21.60
2007,08,14,15,17,21.30
2007,08,14,15,18,21.00
2007,08,14,15,19,20.40
2007,08,14,15,20,20.00
2007,08,14,15,21,19.50
2007,08,14,15,22,19.10
2007,08,14,15,23,18.90
2007,08,14,15,24,18.70
2007,08,14,15,25,18.60
2007,08,14,15,26,18.40
2007,08,14,15,27,18.40
2007,08,14,15,28,18.20
2007,08,14,15,29,17.90
2007,08,14,15,30,17.90
2007,08,14,15,31,17.80
2007,08,14,15,32,17.80
2007,08,14,15,33,17.80
2007,08,14,15,34,17.90
2007,08,14,15,35,17.90
2007,08,14,15,36,18.10
2007,08,14,15,37,18.30
2007,08,14,15,38,18.50
2007,08,14,15,39,18.80
2007,08,14,15,40,19.00
2007,08,14,15,41,18.90
2007,08,14,15,42,18.60
2007,08,14,15,43,18.30
2007,08,14,15,44,18.10
2007,08,14,15,45,18.10
2007,08,14,15,46,18.10
2007,08,14,15,47,18.20
2007,08,14,15,48,18.20
2007,08,14,15,49,18.30
2007,08,14,15,50,18.20
2007,08,14,15,51,18.20
2007,08,14,15,52,18.00
2007,08,14,15,53,17.90
2007,08,14,15,54,17.90
2007,08,14,15,55,17.70
2007,08,14,15,56,17.40
2007,08,14,15,57,17.10
2007,08,14,15,58,17.10
2007,08,14,15,59,17.10
2007,08,14,16,00,17.10
2007,08,14,16,01,17.10
2007,08,14,16,02,17.00
2007,08,14,16,03,17.00
2007,08,14,16,04,17.00
2007,08,14,16,05,16.90
2007,08,14,16,06,16.90
2007,08,14,16,07,16.80
2007,08,14,16,08,16.80
2007,08,14,16,09,16.70
2007,08,14,16,10,16.70
2007,08,14,16,11,16.70
2007,08,14,16,12,16.60
2007,08,14,16,13,16.60
2007,08,14,16,14,16.60
2007,08,14,16,15,16.70
2007,08,14,16,16,16.70
2007,08,14,16,17,16.80
2007,08,14,16,18,16.90
2007,08,14,16,19,17.00
2007,08,14,16,20,17.00
2007,08,14,16,21,17.10
2007,08,14,16,22,17.20
2007,08,14,16,23,17.20
2007,08,14,16,24,17.20
2007,08,14,16,25,17.30
2007,08,14,16,26,17.30
2007,08,14,16,27,17.30
2007,08,14,16,28,17.30
2007,08,14,16,29,17.20
2007,08,14,16,30,17.20
2007,08,14,16,31,17.10
2007,08,14,16,32,16.90
2007,08,14,16,33,16.90
2007,08,14,16,34,16.90
2007,08,14,16,35,16.90
2007,08,14,16,36,17.00
2007,08,14,16,37,17.10
2007,08,14,16,38,17.10
2007,08,14,16,39,17.10
2007,08,14,16,40,17.10
2007,08,14,16,41,17.20
2007,08,14,16,42,17.30
2007,08,14,16,43,17.30
2007,08,14,16,44,17.30
2007,08,14,16,45,17.30
2007,08,14,16,46,17.30
2007,08,14,16,47,17.30
2007,08,14,16,48,17.30
2007,08,14,16,49,17.30
2007,08,14,16,50,17.30
2007,08,14,16,51,17.30
2007,08,14,16,52,17.30
2007,08,14,16,53,17.20
2007,08,14,16,54,17.10
2007,08,14,16,55,17.00
2007,08,14,16,56,17.00
2007,08,14,16,57,17.00
2007,08,14,16,58,17.10
2007,08,14,16,59,17.10
2007,08,14,17,00,17.10
2007,08,14,17,01,17.10
2007,08,14,17,02,17.10
2007,08,14,17,03,17.10
2007,08,14,17,04,17.10
2007,08,14,17,05,17.20
2007,08,14,17,06,17.20
2007,08,14,17,07,17.30
2007,08,14,17,08,17.30
2007,08,14,17,09,17.30
2007,08,14,17,10,17.30
2007,08,14,17,11,17.40
2007,08,14,17,12,17.40
2007,08,14,17,13,17.50
2007,08,14,17,14,17.70
2007,08,14,17,15,17.80
2007,08,14,17,16,17.80
2007,08,14,17,17,18.00
2007,08,14,17,18,18.10
2007,08,14,17,19,18.20